Find WHDW 18-04

NORAD ID: 67438 Int'l Des: 2026-007 Owner: ZXW Country: CN Constellation: xingwang operational
LEOCIRCULAR

实时位置

正在加载3D地球...

关于 WHDW 18-04

正在加载描述...

即将过境

Passes for default location (London). Set your location on the main map for personalized predictions.

高度历史

Loading altitude history...

两行轨道根数

1 67438U 26007D 26106.83445383 -.00000089 00000-0 75187-4 0 9996
2 67438 50.0065 306.0735 0000473 139.0037 221.0871 13.29329970 12624
Epoch: Apr 16, 2026 • Age: 9 hours

当前状态

高度 1166.6 km
速度 7.27 km/s
星下点 -50.14°S, 61.25°W
发射日期 Jan 13, 2026
运行时间 0.2 years
类型 other

技术详情

分类 Payload
质量 700.00 kg
干质量 700.00 kg
总质量 700.00 kg
长度 3.00 m
直径 1.00 m
跨度 10.00 m
形状 Box + 2 Pan
制造商 CAST
平台类型 Xingwang C
阶段状态 In Orbit
所有者/国家 ZXW/CN

Most Searched